{"data":{"norad_id":56112,"epoch":"2026-09-19T23:52:41.712672Z","epoch_age_seconds":152201,"freshness":"FRESH","line1":"1 56112U 23046V   26262.99492723 -.00000657  00000+0 -14346-4 0  9994","line2":"2 56112  43.0035 144.5905 0001564 274.5919  85.4754 15.27579402191740","mean_motion":15.27579402,"eccentricity":0.0001564,"inclination_deg":43.0035,"raan_deg":144.5905,"arg_perigee_deg":274.5919,"mean_anomaly_deg":85.4754,"bstar":-1.4346e-5,"rev_number":19174,"period_min":94.266785616163,"perigee_km":481.97779688189,"apogee_km":484.12397645284,"semimajor_km":6861.1878866674,"source":"CELESTRAK","updated_at":"2026-09-21T09:00:33.384222Z"}}